Tracking 19832 objects as of 24-Aug-2019
HD Live streaming from Space Station
objects crossing your sky now

COSMOS 2251 DEB

Track COSMOS 2251 DEB now!
10-day predictions


NORAD ID: 34070
Int'l Code: 1993-036KH
Perigee: 727.6 km
Apogee: 783.3 km
Inclination: 74.0 °
Period: 99.8 minutes
Semi major axis: 7126 km
RCS: 0.019 m2 (small)
Launch date: June 16, 1993
Source: Commonwealth of Independent States (former USSR) (CIS)
Launch site: PLESETSK MISSILE AND SPACE COMPLEX (PKMTR)

Note: This is SATELLITE DEBRIS
aabbcc
Your satellite tracking list
Your tracking list is empty




NASA's NSSDC Master Catalog

Two Line Element Set (TLE):
1 34070U 93036KH  19236.21643257  .00000398  00000-0  12547-3 0  9998
2 34070  74.0133 135.6580 0039100  81.7510  85.4530 14.43094385552241
Source of the keplerian elements: AFSPC